{"data":{"norad_id":63431,"epoch":"2026-05-25T05:33:26.798688Z","epoch_age_seconds":65605,"freshness":"FRESH","line1":"1 63431U 25067D   26145.23156017  .00000533  00000+0  34188-4 0  9998","line2":"2 63431  54.9895 128.5398 0002600 279.6226  80.4502 15.25119498 64438","mean_motion":15.25119498,"eccentricity":0.00026,"inclination_deg":54.9895,"raan_deg":128.5398,"arg_perigee_deg":279.6226,"mean_anomaly_deg":80.4502,"bstar":3.4188e-5,"rev_number":6443,"period_min":94.418830910521,"perigee_km":488.64080114039,"apogee_km":492.21245422679,"semimajor_km":6868.5636276836,"source":"CELESTRAK","updated_at":"2026-05-25T13:38:03.729741Z"}}